MIDAS 4 DEB, 42665

Orbit data source: Space-Track

MIDAS 4 DEB, 42665 is space debris in LEO originally from a launch on Sat, 21 Oct 1961 UTC launched from the Air Force Western Test Range (AFWTR). Debris objects in space refer to the collection of defunct objects orbiting the Earth. Examples of debris include non-operational satellites, rocket bodies, and fragments generated from explosions, collisions, or faulty payload assembly.

Loading next visibility...
Identifier
42665, 1961-028L
Orbit
LEO
Country
Flag of USUS
Related business
Manufacturer
Unknown
Mission
Spacecraft
Bus & Motor
Unknown
Mass
Unknown
Launch date (UTC)
1961-10-21 (65 years ago)
Launch vehicle
Unknown
Launch site
Air Force Western Test Range (AFWTR)
Object type
Payload
Rocket body
Debris
Shape & HBR
Unknown shape, 0.1 m
Radar Cross Section
Medium (>0.1 m² and <1 m²)

Expand to show TLE details & history
Last TLE update: 1 year ago

TLE from 1 year ago
0 MIDAS 4 DEB
1 42665U 61028L   25088.05455497 -.00000501  00000-0 -15765+0 0  9993
2 42665  95.8214 199.3250 0819284 126.4700 241.4511  8.70774315163140
Epoch: 2025-03-29T01:18Z
TLE epoch observation values (Epoch: 2025-03-29T01:18:33.549Z)
Latitude
0.00002°
Longitude
-7.01945°
Altitude
4,043.544 km
Speed
6.047 km/s
True Right ascension
13h 17m 17s
True Declination
0° 00' 00"
Sunlit
Object was in full shadow at epoch
Visualization orbit readout
Latitude
Unknown
Longitude
Unknown
Altitude
Unknown
Speed
Unknown
Apparent Right ascension
Unknown
Apparent Declination
Unknown
Sunlit
N/A
Visualization observer readout
Local Sidereal Time
21:40:51
Azimuth
Unknown
Elevation
Unknown
Doppler factor
Unknown
Orbital elements
Apogee altitude
4,417.201 km
Perigee altitude
2,782.259 km
Semi-major axis
9,977.867 km
Eccentricity
0.08193
Inclination
95.8214°
RAAN
199.325°
Arg. of periapsis
126.47°
True anomaly
233.61412°
Mean anomaly
241.4511°
Eccentric anomaly
237.49243°
Mean motion
2.17764 °/min
Orbital period
165.32 mins
BSTAR
-0.15765
Loading maneuver chart data...
Computing Atmospheric mass density...
Loading historical data...
Loading historical data...
Loading historical data...
Loading historical data...
Loading historical data...
Loading historical data...
Loading historical data...

Documentation

Showing up to 5 results
|